Location: Boryczów
(50.0247°N, 20.1998°E)
Time: 12:13:47
(UTC+00:00)

Daily predictions for brighter satellites

Satellite Brightness Start Highest point End
(mag) Time Altitude Azimuth Time Altitude Azimuth Time Altitude Azimuth
BREEZE-M DEB (TANK) 3.6 19:07:44 10° SW 19:10:41 55° SSE 19:20:05 10° ENE
USA 281 4.2 19:08:54 10° ESE 19:14:48 36° NE 19:20:42 10° NNW
Cosmos 1975 4.5 19:11:58 10° NNE 19:14:55 20° ENE 19:17:50 10° ESE
Cosmos 1331 Rocket 4.5 19:10:00 10° NNW 19:15:10 61° WSW 19:20:15 10° S
Cosmos 1302 Rocket 4.1 19:12:13 10° NNW 19:17:26 72° ENE 19:22:38 10° SSE
NOSS 2-1 (C) 3.5 19:16:23 10° NW 19:20:06 84° NE 19:25:12 10° SE
MOS 1 Rocket 4.3 19:15:45 10° SE 19:20:40 42° ENE 19:25:43 10° N
Cosmos 1943 3.8 19:21:16 10° SW 19:26:54 64° WNW 19:32:34 10° NNE
Meteor 1-10 Rocket 4.2 19:23:12 10° S 19:28:52 85° E 19:34:29 10° NNE
MetOp-B 4.3 19:24:20 10° S 19:29:41 77° WSW 19:35:04 10° NNW
Cosmos 1536 3.0 19:25:58 10° NNW 19:29:53 73° W 19:33:48 10° S
Cosmos 2279 Rocket 4.2 19:23:48 10° NNW 19:30:00 75° W 19:36:11 10° S
Nadezhda 4 Rocket 4.3 19:26:43 10° SSE 19:32:41 52° E 19:38:45 10° NNE
Meteor 2-10 4.1 19:28:45 10° NNW 19:34:16 84° ENE 19:39:32 10° SSE
Cosmos 1340 2.4 19:32:15 10° N 19:35:39 67° ENE 19:39:00 10° SSE
FALCON 9 R/B 4.4 19:33:06 10° SW 19:37:22 20° S 19:46:00 10° SE
Spot 2 Rocket 3.6 19:32:46 10° SSE 19:37:45 67° ENE 19:42:47 10° N
Meteor 1-11 Rocket 4.0 19:32:05 10° NNW 19:37:47 74° W 19:43:35 10° S
Okean-O 3.8 19:34:29 10° S 19:38:39 41° W 19:42:50 10° NNW
USA 245 2.1 19:36:53 10° SSE 19:39:10 81° E 19:41:52 10° NNW
Landsat 4 3.6 19:35:46 10° SSE 19:39:13 66° ENE 19:42:40 10° N
Cosmos 1500 Rocket 3.6 19:35:17 10° NNW 19:39:36 84° W 19:43:54 10° S
SPOT 5 3.3 19:39:28 10° S 19:43:49 54° W 19:48:06 10° NNW
Cosmos 1697 Rocket 3.9 19:38:48 10° NNW 19:43:51 33° NE 19:48:52 10° ESE
Cosmos 1626 3.5 19:45:10 12° SE 19:46:59 18° E 19:49:14 10° NE
Sich 1 3.1 19:43:07 10° NNW 19:47:31 83° W 19:51:53 10° S
Meteor 2-9 Rocket 4.5 19:41:55 10° NNW 19:47:47 78° W 19:53:37 10° S
NOSS 3-3 (C) 4.3 19:43:24 10° S 19:48:18 37° ESE 19:53:57 10° NE
Cosmos 1726 3.9 19:48:10 10° NW 19:50:41 22° W 19:53:10 10° SW
Cosmos 1805 Rocket 3.7 19:46:49 10° NNW 19:51:14 77° W 19:55:39 10° S
Cosmos 1980 Rocket 4.0 19:49:08 10° NNW 19:53:41 23° NE 19:58:11 10° E
Cosmos 1633 Rocket 3.9 19:50:20 10° N 19:54:27 36° ENE 19:57:53 14° SE
Cosmos 1733 3.3 19:52:40 10° NNW 19:56:07 64° W 19:59:35 10° S
Cosmos 1666 Rocket 4.0 19:56:11 10° N 20:00:24 48° ENE 20:03:46 15° SSE
SL-8 R/B 3.6 19:55:42 10° W 20:00:26 72° S 20:05:12 10° ESE
USA 234 4.1 19:54:25 10° ENE 20:00:45 54° NNW 20:07:05 10° W
Ariane Rocket 3.1 19:55:59 10° SSE 20:01:03 83° WSW 20:06:11 10° NNW
Cosmos 44 Rocket 3.9 19:57:57 10° NNW 20:02:49 50° NE 20:07:10 12° ESE
Lacrosse 5 rocket 2.9 19:59:30 10° NW 20:03:27 35° NNE 20:07:16 10° E
Meteor 2-4 Rocket 4.0 20:04:37 10° S 20:10:24 58° E 20:16:13 10° NNE
Cosmos 2026 Rocket 4.2 20:05:13 11° SSE 20:11:04 54° E 20:17:05 10° NNE
Cosmos 1674 4.5 20:11:20 13° ESE 20:12:34 15° E 20:14:36 10° NE
ERS-1 Rocket 3.7 20:08:46 10° S 20:13:38 49° W 20:18:32 10° NNW
SPOT 3 Rocket 3.7 20:10:36 12° S 20:15:27 70° WSW 20:20:37 10° NNW
USA 59 Rocket 1.0 20:12:21 10° WNW 20:16:08 40° SW 20:20:16 14° S
Cosmos 614 Rocket 4.0 20:12:02 10° SSW 20:17:15 90° W 20:22:31 10° NNE
Cosmos 1340 Rocket 3.5 20:14:37 10° SSW 20:18:31 54° WNW 20:22:26 10° N
Lacrosse 4 Rocket 1.8 20:14:35 10° NW 20:18:36 55° WSW 20:21:37 17° SSE
Cosmos 1818 3.5 20:13:23 10° SSW 20:18:48 69° SE 20:24:16 10° NE
Spot 1 4.1 20:14:58 10° NNE 20:19:04 61° ESE 20:22:51 13° S
Meteor 1-27 Rocket 4.3 20:15:42 10° SSW 20:21:08 59° WNW 20:26:41 10° N
IRIDIUM 106 4.3 20:23:26 10° N 20:28:41 80° E 20:32:49 17° S
H-2A R/B 4.2 20:25:54 12° ESE 20:28:49 23° ENE 20:32:11 10° N
Terra 2.9 20:24:29 10° SSW 20:28:55 40° W 20:33:22 10° NNW
Cosmos 1805 3.8 20:26:10 10° NNW 20:29:47 51° W 20:32:42 15° SSW
Cosmos 1833 Rocket 3.1 20:26:09 14° S 20:30:33 42° ESE 20:35:49 10° NE
Cosmos 1766 3.5 20:29:10 10° N 20:32:52 53° ENE 20:34:59 23° SE
Cosmos 1656 3.9 20:27:36 10° NW 20:32:59 61° WSW 20:37:08 17° S
Cosmos 1269 Rocket 4.0 20:32:56 10° SSW 20:38:10 74° ESE 20:43:27 10° NNE
Cosmos 2082 Rocket 3.8 20:42:10 15° ESE 20:44:03 18° E 20:47:44 10° ENE
Cosmos 1553 Rocket 4.1 20:40:18 10° N 20:46:22 65° ENE 20:50:36 21° SSE
Cosmos 1470 3.5 20:43:47 10° N 20:47:15 37° ENE 20:48:57 23° SE
Landsat 5 3.4 20:44:01 10° N 20:47:49 72° WNW 20:51:04 14° SSW
DELTA 2 R/B (1) 4.5 20:43:46 10° SW 20:48:24 27° S 20:50:45 20° SE
Cosmos 1151 Rocket 4.3 20:44:35 10° SW 20:48:40 39° WNW 20:52:45 10° N
Cosmos 1975 3.7 20:47:16 10° NNW 20:51:00 41° W 20:53:47 16° SSW
Cosmos 2360 4.3 20:45:28 10° NNW 20:51:11 72° WSW 20:55:00 22° SSE
GEOS 3 Rocket 3.8 20:52:24 10° NE 20:57:25 49° SE 21:01:25 15° SSW
Meteor 1-18 Rocket 4.5 20:52:53 11° SSW 20:58:34 78° WNW 21:04:30 10° N
USA 281 3.5 20:54:10 19° S 20:59:00 63° WSW 21:05:34 10° NNW
Cosmos 1908 3.9 21:00:19 10° N 21:03:40 37° ENE 21:05:04 26° ESE
NOSS 3-3 (A) 4.0 20:59:27 10° SW 21:05:01 77° NW 21:11:36 10° NE
ARIANE 5 R/B 2.6 21:02:57 27° SSE 21:05:16 74° ENE 21:09:36 10° N
Cosmos 2285 Rocket 4.3 21:03:59 21° S 21:07:57 51° ESE 21:14:05 10° NNE
Cosmos 1092 Rocket 4.4 21:01:47 10° SSW 21:07:58 65° WNW 21:14:18 10° N
Cosmos 1328 Rocket 4.0 21:05:06 15° SSW 21:08:35 56° WNW 21:12:50 10° N
H-2A R/B 4.4 21:11:00 10° ENE 21:11:39 10° E 21:12:18 10° E
Cosmos 1023 Rocket 4.5 21:08:24 21° S 21:11:54 67° ESE 21:17:06 10° NNE
CZ-2C R/B 3.6 21:08:47 10° NNE 21:13:16 70° ESE 21:15:38 27° S
BREEZE-M DEB (TANK) 3.4 21:15:40 35° SSE 21:16:02 36° SE 21:21:12 10° ENE
Cosmos 1140 Rocket 3.5 21:14:22 22° S 21:17:49 71° ESE 21:23:01 10° NNE
Cosmos 1515 Rocket 3.4 21:17:02 26° S 21:19:25 90° W 21:23:47 10° N
Cosmos 1626 3.5 21:17:57 13° SW 21:20:18 29° WNW 21:23:10 10° N
NOSS 3-4 (A) 3.8 21:14:01 10° NW 21:20:49 80° SW 21:26:14 22° SSE
NOSS 3-4 (C) 3.8 21:14:07 10° NW 21:20:55 81° SW 21:26:21 22° SE
Cosmos 2266 Rocket 4.3 21:17:38 24° SSE 21:21:13 53° E 21:27:20 10° NNE
Spot 4 4.2 21:19:17 25° SE 21:21:51 56° ENE 21:26:32 10° N
Cosmos 1707 2.5 21:26:10 38° S 21:27:25 72° E 21:31:04 10° NNE
Cosmos 1697 Rocket 3.0 21:22:37 10° NW 21:28:06 55° WSW 21:31:08 26° S
Cosmos 2322 Rocket 4.3 21:24:01 10° N 21:28:17 21° NE 21:32:34 10° E
Cosmos 1400 Rocket 4.2 21:27:50 22° ESE 21:28:48 24° E 21:32:00 10° NE
PSLV R/B 3.8 21:24:58 10° NNE 21:29:02 78° ESE 21:30:49 32° S
Cosmos 1470 Rocket 4.4 21:25:03 10° NNW 21:29:15 42° W 21:31:41 22° SSW
BREEZE-M DEB (TANK) 2.3 21:22:43 10° WSW 21:29:55 89° SE 21:32:27 10° ENE
Cosmos 1869 Rocket 3.7 21:26:38 10° N 21:31:00 67° ENE 21:32:56 32° SSE
Meteor 1-15 Rocket 4.5 21:25:43 10° N 21:31:17 59° ENE 21:34:24 26° SE
Cosmos 1300 4.2 21:28:21 10° NNE 21:31:21 24° ENE 21:32:38 20° ESE
In-Cosmos 22 4.5 21:31:21 27° SSE 21:34:22 56° E 21:39:55 10° NNE
Cosmos 1441 Rocket 3.1 21:33:03 10° N 21:36:39 68° ENE 21:37:42 41° SE
Orbus 7S? 3.0 21:33:11 10° SW 21:37:55 85° SSE 21:40:47 10° ENE
Cosmos 1980 Rocket 2.2 21:32:42 10° NNW 21:38:27 88° WSW 21:41:38 28° SSE
Lacrosse 5 rocket 1.2 21:37:58 10° WNW 21:42:12 88° NNE 21:44:16 28° ESE
SL-8 R/B 4.2 21:38:08 10° W 21:42:33 38° SSW 21:43:39 33° S
USA 234 4.1 21:36:55 10° E 21:43:13 51° N 21:49:30 10° WNW
Cosmos 2228 Rocket 4.2 21:41:50 26° SE 21:43:23 33° E 21:47:27 10° NNE
Cosmos 2333 Rocket 4.4 21:39:18 10° NNW 21:43:35 21° NE 21:47:52 10° E
Cosmos 44 Rocket 4.4 21:39:47 10° NW 21:44:06 31° WSW 21:45:49 24° SSW
Cosmos 1655 Rocket 4.3 21:41:21 26° SSE 21:44:52 57° E 21:51:07 10° NNE
Cosmos 1842 3.7 21:44:35 27° SW 21:46:17 51° WNW 21:49:53 10° N
Cosmos 1674 3.4 21:44:53 25° SW 21:46:30 42° WNW 21:49:51 10° N
Cosmos 540 Rocket 3.7 21:42:45 10° NNW 21:47:55 66° ENE 21:50:44 27° SE
Cosmos 1763 Rocket 3.5 21:44:51 10° NNW 21:50:12 89° E 21:52:51 30° SSE
Cosmos 468 Rocket 4.2 21:47:32 10° NNW 21:52:50 67° ENE 21:55:43 27° SE
Cosmos 1933 Rocket 4.3 21:50:03 10° NNW 21:54:13 44° W 21:56:09 27° SSW
GP-B 3.6 21:55:04 10° NNE 21:59:21 47° E 22:00:59 31° SE
Cosmos 407 Rocket 3.5 21:56:18 23° SSW 21:59:39 80° WNW 22:04:55 10° NNE
SL-14 R/B 3.8 22:01:00 35° SE 22:01:54 42° E 22:05:32 10° NNE
H-2A R/B 3.1 22:01:54 31° SSW 22:03:29 46° W 22:07:38 10° NNW
Aureole 3 4.3 22:04:37 23° E 22:04:51 23° E 22:07:30 10° NE
Cosmos 2369 3.7 22:00:18 10° NNW 22:06:01 73° WSW 22:08:52 31° SSE
Cosmos 1862 Rocket 4.3 22:05:04 30° SE 22:06:27 39° E 22:10:30 10° NNE
Cosmos 1607 4.4 22:00:41 10° SW 22:07:06 65° NW 22:13:36 10° NE
Cosmos 1954 Rocket 4.3 22:05:17 32° SSE 22:07:29 54° ESE 22:12:39 10° NNE
Cosmos 1455 4.3 22:05:36 10° NNE 22:07:49 16° ENE 22:09:28 12° E
Cosmos 1190 Rocket 4.0 22:10:54 31° SSW 22:13:31 78° ESE 22:18:51 10° NNE
ALOS 2 2.7 22:12:16 37° S 22:13:54 68° WSW 22:18:18 10° NNW
Cosmos 1833 Rocket 3.9 22:09:15 10° WSW 22:14:31 40° NW 22:19:49 10° NNE
Cosmos 2219 Rocket 4.5 22:12:08 10° N 22:16:22 21° NE 22:20:35 10° E
ATLAS 2AS CENTAUR R/B 4.1 22:10:54 10° NW 22:17:20 37° NNE 22:23:31 10° E
COSMOS 2406 3.2 22:15:19 30° S 22:18:15 70° ESE 22:23:59 10° NNE
SL-16 R/B 2.8 22:12:50 10° NNW 22:18:26 54° NE 22:22:42 17° SE
Cosmos 1758 3.1 22:17:06 10° NNW 22:20:57 83° W 22:22:01 47° S
PSLV R/B 3.8 22:17:32 10° NNE 22:21:58 60° E 22:23:26 38° SSE
Meteor 1-12 Rocket 4.4 22:17:45 10° NNW 22:23:41 73° W 22:26:45 30° S
Meteor 1-23 Rocket 4.2 22:20:52 30° S 22:23:44 89° WNW 22:29:27 10° NNE
Cosmos 2082 Rocket 2.2 22:23:57 26° SSW 22:27:22 87° WNW 22:33:08 10° NNE
Meteor 2-20 4.4 22:21:52 10° N 22:28:04 89° W 22:31:23 30° S
Cosmos 2251 Rocket 4.1 22:24:49 18° SW 22:28:32 54° WNW 22:33:45 10° NNE
CZ-2C R/B 4.2 22:26:20 28° SSE 22:29:02 69° E 22:50:28 10° N
Cosmos 1707 Rocket 3.5 22:28:05 39° S 22:29:43 80° E 22:34:11 10° NNE
Cosmos 2360 Rocket 3.5 22:25:16 10° NNW 22:30:32 37° NE 22:35:47 10° ESE
Meteor 2-10 Rocket 4.0 22:30:26 10° NNW 22:36:10 61° W 22:38:54 30° SSW
Okean 2 4.2 22:38:45 30° SE 22:39:53 37° E 22:43:36 10° NNE
Okean 3 3.4 22:41:11 42° SSE 22:42:27 70° E 22:46:34 10° NNE
Meteor 1-4 Rocket 3.4 22:42:38 27° E 22:42:43 27° E 22:45:18 10° NE
H-2A R/B 2.0 22:43:39 10° NNE 22:48:06 81° ESE 22:49:42 39° S
USA 267 3.9 22:42:36 10° ENE 22:48:34 37° SE 22:51:04 27° S
Cosmos 1315 Rocket 3.8 22:49:16 29° SE 22:50:24 36° E 22:54:02 10° NNE
Cosmos 2237 4.2 22:47:34 10° NNW 22:53:20 83° WSW 22:56:34 27° SSE
Cosmos 1346 Rocket 3.0 22:54:13 10° NNW 22:58:00 52° W 22:58:57 41° SW
Cosmos 1908 Rocket 3.7 22:53:57 10° N 22:58:22 67° ENE 23:00:17 32° SSE
Cosmos 968 Rocket 4.5 22:56:50 24° SE 22:58:53 33° ESE 23:03:28 10° NE
Cosmos 1733 Rocket 3.8 22:57:43 10° NNW 23:01:48 40° W 23:03:12 30° SW
SL-4 R/B 3.5 23:02:20 23° SE 23:02:20 23° SE 23:05:22 10° E
Helios 1A Rocket 4.0 23:01:29 19° ESE 23:03:40 36° ENE 23:07:13 10° N
Cosmos 2278 3.8 22:58:36 10° NW 23:04:15 62° WSW 23:07:01 30° S
Cosmos 1400 Rocket 4.0 23:02:59 23° WSW 23:04:41 33° WNW 23:08:18 10° N
Cosmos 1244 Rocket 4.5 23:02:01 29° SSW 23:05:24 83° W 23:11:41 10° N
Cosmos 1300 3.9 23:03:01 10° NNW 23:06:02 26° W 23:06:40 25° WSW
Cosmos 1850 Rocket 4.2 23:10:20 32° S 23:12:43 62° ESE 23:17:54 10° NNE
Cosmos 2322 Rocket 2.2 23:07:31 10° NNW 23:13:13 83° ENE 23:17:16 20° SSE
Cosmos 841 Rocket 3.7 23:08:41 10° NNW 23:13:50 57° WSW 23:16:05 32° S
Cosmos 1408 4.2 23:15:08 16° ESE 23:15:52 17° E 23:17:55 10° NE
Resurs 1-4 Rocket 4.3 23:13:54 10° NE 23:16:48 15° E 23:19:41 10° ESE
Cosmos 1242 Rocket 3.3 23:19:14 27° ESE 23:19:33 28° E 23:22:04 10° NNE
Okean 1-7 3.0 23:18:10 37° SSW 23:19:50 77° W 23:24:11 10° N
Lacrosse 5 rocket 3.1 23:17:06 10° W 23:19:04 18° WSW 23:19:04 18° WSW
Cosmos 2228 Rocket 4.5 23:19:15 20° WSW 23:21:32 31° WNW 23:25:34 10° N
Cosmos 1980 Rocket 4.0 23:18:12 10° WNW 23:21:36 16° W 23:23:22 14° WSW
Cosmos 1741 Rocket 4.1 23:19:46 31° S 23:22:15 70° ESE 23:27:32 10° NNE
CZ-2D R/B 4.3 23:21:13 10° NE 23:24:42 17° E 23:28:07 10° SE
USA 234 3.3 23:19:20 10° ESE 23:25:55 82° NNE 23:32:29 10° WNW
SL-27 R/B 3.1 23:27:58 29° ESE 23:28:05 29° ESE 23:30:35 10° NE
Cosmos 2333 Rocket 2.3 23:23:02 10° NNW 23:28:49 79° ENE 23:33:44 14° SE
Cosmos 1238 4.1 23:26:45 10° N 23:30:06 90° SSW 23:30:45 53° S
Cosmos 1953 2.6 23:27:14 10° NNW 23:31:02 51° W 23:32:08 37° SW
Timation 1 Rocket 4.4 23:28:40 28° SSW 23:31:54 73° ESE 23:37:52 10° NE
Genesis I 2.8 23:33:03 43° SW 23:34:06 88° SE 23:37:41 10° NE
Cosmos 1709 Rocket 4.3 23:30:45 23° SSE 23:34:49 61° E 23:41:07 10° NNE
BREEZE-M DEB (TANK) 4.0 23:34:39 33° SSE 23:35:18 37° SE 23:41:16 10° ENE
IDEFIX/ARIANE 42P 4.1 23:34:40 10° NE 23:39:10 28° E 23:42:54 13° SSE
Cosmos 1703 Rocket 3.6 23:38:29 32° SSW 23:40:27 72° WNW 23:44:56 10° N
SL-19 R/B 4.1 23:36:56 10° NNE 23:40:54 86° ESE 23:42:10 39° SSW
Cosmos 1455 2.6 23:39:13 10° NNW 23:42:30 40° W 23:43:13 35° SW
Cosmos 1300 Rocket 3.5 23:40:26 10° N 23:44:46 86° E 23:47:00 28° SSE
ADEOS II 4.3 23:42:40 10° NE 23:45:59 17° E 23:49:16 10° SE
SJ 16-02 1.5 23:45:36 30° S 23:47:30 60° ESE 23:51:47 10° NNE
RESURS DK-1 2.2 23:44:58 10° NW 23:49:02 72° WSW 23:51:06 27° SSE
Cosmos 1833 4.5 23:48:57 25° S 23:52:08 57° ESE 23:57:39 10° NE
